Vertical_Velocity
5 6 -15 -13 18 10 33 11 2 -4 2 21 -10 -28 3 8 -1 -1 2 -2 -5 -4 15 -1 1 1 3 1 2 8 6 -11 -7 -6 -9 -4 -2 0 -1 -2 -0 1 0 0
-2 -15 20 20 16 9 3 10 3 -2 -1 9 -10 -39 22 8 -32 8 6 -6 -2 11 -3 6 -0 1 -2 5 1 8 10 7 -3 -6 3 -4 4 1 3 3 1 1 2 -1
16 -13 -4 1 -2 26 -17 9 -5 15 9 -1 17 -10 23 2 6 -10 3 7 2 2 4 1 -1 -2 2 -0 -4 1 4 21 -10 10 -2 8 -1 3 3 1 1 -1 1 2
-4 -10 4 -3 -4 17 5 13 2 14 19 -12 17 -9 4 -2 -15 -5 -4 -2 -1 -3 -6 12 -1 -0 0 7 7 -2 8 -4 28 4 -17 5 -7 -1 -1 1 7 1 -0 -1
-26 -14 1 3 -23 28 -33 18 8 11 9 14 9 17 -16 10 2 -10 -10 4 -0 6 11 -2 4 0 -3 3 5 2 -0 9 -11 -10 -1 -7 8 -5 11 3 4 1 3 1
16 10 3 2 14 0 -22 13 7 12 5 16 -12 15 -14 -1 -33 1 2 -9 -3 -6 -1 6 2 6 -4 1 5 2 -2 4 4 7 4 -9 8 -0 -6 1 -1 -2 2 4
-28 -12 41 5 -19 6 13 20 2 12 15 -9 -4 8 -34 18 -5 -6 -13 -9 -3 1 6 -0 -5 -1 1 -7 4 2 3 -1 3 0 6 -15 0 16 8 9 4 2 -6 -5
-4 -66 -7 -14 22 4 -7 10 -4 -7 -3 -8 0 -2 -47 -7 -4 23 3 7 5 5 1 -4 -1 -2 2 -0 2 -1 6 3 2 -3 4 15 -10 9 11 -6 -17 3 9 2
-1 -19 -30 14 1 26 5 6 6 4 2 6 -9 -3 3 -5 -14 11 3 16 -12 -1 2 -4 5 3 2 0 1 -2 4 -0 4 7 3 -25 24 9 1 5 -7 4 5 -6
-11 -13 -2 -3 3 19 16 6 23 11 3 3 3 -0 -15 -1 -14 -12 23 1 10 -6 13 8 4 6 6 3 4 1 5 -3 7 0 -3 -10 -5 20 -2 24 -3 10 -9 -1
4 12 -33 -1 -4 11 -15 -12 8 4 -0 -1 -2 -3 2 13 9 8 13 3 1 6 4 5 1 1 7 3 -4 0 -1 -1 6 1 3 2 8 -1 11 -6 -16 12 -7 -1
6 5 -8 -3 4 15 -2 3 4 7 -3 -0 3 7 12 6 14 -8 -7 5 5 -1 1 -1 4 -2 -0 1 -1 -1 3 2 4 6 2 -1 0 -1 15 -7 -11 8 1 -5
20 -5 -11 -30 -4 12 -7 4 7 23 6 1 -2 14 17 23 13 13 5 -3 -3 1 -1 -4 1 -1 3 -2 -6 0 2 4 3 -0 1 3 -5 3 14 2 6 13 2 -6
3 -3 10 5 -3 8 -10 -3 4 12 7 5 -4 21 33 10 21 21 17 15 3 5 1 6 2 2 -2 8 0 -2 1 2 2 1 2 -1 -0 5 5 22 10 7 -8 9
7 -9 6 5 3 -1 2 7 7 6 10 1 21 -8 8 4 1 1 -4 -3 -4 -13 -2 -2 -3 5 -7 1 3 0 -0 4 3 1 -0 -4 3 4 -0 5 3 13 10 16
-3 -14 -2 -19 0 3 1 18 16 12 15 4 11 -5 12 6 6 -8 -4 2 -4 -11 1 -1 -4 3 5 -9 -1 4 2 -0 3 -0 -0 -2 1 3 4 4 15 7 1 -3
1 1 -2 -8 -2 -0 1 6 7 24 13 8 -15 7 7 7 -0 -0 -0 -2 -2 -1 -1 -6 1 1 -1 -9 1 2 2 4 -2 -2 -1 -0 1 -0 -7 21 2 5 -7 5
-4 -0 2 -7 -9 -1 20 7 10 15 13 17 11 4 -2 -0 -1 0 2 3 5 0 -3 1 -1 -1 -2 2 1 6 3 0 -4 -3 1 -1 1 3 -3 18 16 8 -5 -6
4 3 -2 1 1 -3 -12 -28 -18 -1 5 2 4 4 1 -5 7 5 -2 -3 -3 3 0 -2 0 -2 7 6 6 3 2 10 2 -5 -3 2 -0 -2 -4 36 2 7 -0 -12
7 1 0 -5 2 3 23 -2 3 1 2 1 1 0 0 3 3 2 2 1 -3 -6 -7 2 -0 -2 -1 -4 6 -4 5 3 -5 -2 -3 2 2 7 -9 20 13 16 3 10
-12 -7 -1 0 -1 5 2 -5 0 -28 -20 -2 -3 -2 -3 -4 -0 -2 -0 0 0 -7 -3 -1 -3 0 2 -0 1 20 32 -4 11 -2 0 -1 3 -2 -0 -1 15 4 3 6
4 1 -1 -2 1 -4 -3 -1 -19 5 7 1 3 -1 -1 1 2 -1 -2 -2 -1 -0 0 -1 -0 -2 -2 -2 -3 -2 -3 2 2 -4 1 -3 -1 7 2 11 18 16 8 6
-1 4 4 -2 0 1 3 -3 4 -2 -3 -5 2 1 -1 0 0 2 1 -1 -0 1 -0 1 1 2 1 2 -1 -1 6 9 2 4 2 2 0 -1 -2 2 6 17 10 10
5 1 -0 -0 4 6 3 3 -2 1 1 3 4 -1 -3 -1 -0 0 1 1 1 -0 0 -1 -0 1 -0 1 5 -1 -3 2 4 6 -2 5 3 1 7 5 8 16 9 10
-1 -3 -5 4 0 4 -2 -3 -5 5 1 -1 2 0 1 1 2 1 1 0 -0 -1 -0 -0 0 -1 -0 -1 0 -1 1 4 4 5 5 6 2 -0 -0 4 8 7 10 18
0 -5 -4 -9 3 -3 -3 -2 -1 0 2 -0 -1 -0 0 1 2 0 -1 -1 -1 -0 1 2 2 1 1 1 -0 -1 -0 1 2 1 1 2 3 4 4 10 12 13 18 14
Height
2972 2975 2964 2961 2966 2969 2969 2973 2971 2974 2984 2987 2986 2982 2988 2995 3004 3005 3007 3012 3017 3021 3030 3035 3041 3047 3053 3058 3064 3070 3076 3078 3084 3088 3094 3099 3105 3111 3115 3119 3124 3129 3133 3136
2965 2959 2959 2962 2962 2962 2958 2956 2957 2963 2970 2978 2979 2975 2975 2986 2990 2998 2999 3003 3008 3013 3018 3025 3029 3036 3042 3049 3056 3063 3069 3073 3075 3083 3088 3095 3102 3107 3111 3115 3119 3123 3128 3132
2957 2950 2952 2952 2950 2948 2949 2949 2953 2957 2959 2965 2968 2965 2965 2974 2979 2987 2989 2993 2999 3004 3008 3015 3018 3026 3034 3039 3046 3054 3061 3064 3070 3076 3082 3086 3091 3098 3103 3106 3111 3117 3123 3128
2948 2945 2945 2944 2941 2942 2938 2944 2946 2951 2952 2944 2956 2950 2948 2961 2967 2974 2978 2984 2990 2995 3001 3008 3010 3016 3025 3031 3038 3047 3054 3058 3061 3067 3073 3079 3086 3095 3102 3106 3110 3114 3119 3122
2944 2936 2933 2935 2933 2934 2931 2936 2939 2940 2940 2946 2945 2949 2938 2947 2956 2962 2966 2973 2981 2989 2994 2999 3003 3009 3018 3025 3030 3037 3046 3052 3056 3061 3066 3072 3081 3083 3095 3101 3104 3108 3114 3118
2938 2930 2923 2925 2925 2923 2923 2922 2929 2934 2937 2928 2935 2939 2932 2936 2942 2951 2961 2968 2974 2980 2986 2993 2997 3004 3010 3018 3024 3029 3036 3042 3048 3052 3057 3065 3069 3081 3088 3093 3097 3102 3108 3114
2929 2923 2919 2917 2913 2912 2913 2911 2920 2926 2921 2919 2928 2933 2935 2932 2940 2947 2954 2959 2965 2970 2977 2983 2989 2996 3002 3007 3014 3021 3027 3034 3040 3046 3051 3058 3066 3074 3082 3085 3092 3098 3104 3108
2939 2922 2921 2916 2916 2912 2901 2903 2901 2909 2910 2918 2923 2927 2920 2925 2934 2943 2949 2954 2958 2963 2967 2974 2981 2987 2994 3000 3006 3014 3019 3026 3032 3036 3044 3052 3062 3068 3074 3081 3087 3093 3098 3105
2941 2929 2920 2917 2911 2906 2895 2889 2890 2898 2901 2910 2912 2919 2916 2924 2929 2939 2943 2949 2951 2955 2961 2968 2975 2980 2987 2992 2998 3005 3013 3019 3025 3031 3037 3044 3053 3061 3067 3072 3079 3084 3090 3096
2943 2923 2916 2910 2902 2897 2893 2889 2891 2898 2898 2899 2900 2905 2910 2914 2922 2931 2939 2944 2948 2951 2956 2962 2969 2972 2979 2985 2993 2998 3006 3014 3021 3024 3031 3039 3047 3054 3060 3063 3070 3078 3083 3087
2941 2934 2915 2909 2902 2901 2890 2889 2887 2893 2896 2895 2900 2903 2904 2908 2916 2925 2933 2938 2943 2948 2952 2958 2963 2967 2973 2980 2986 2991 2999 3006 3013 3018 3025 3032 3040 3046 3052 3058 3065 3071 3077 3082
2940 2934 2920 2909 2903 2901 2900 2897 2894 2895 2892 2893 2889 2902 2903 2910 2915 2922 2930 2935 2940 2943 2947 2951 2956 2959 2966 2973 2978 2984 2993 3000 3006 3012 3018 3024 3032 3038 3045 3051 3058 3066 3070 3075
2940 2934 2923 2906 2904 2902 2897 2894 2895 2896 2895 2891 2894 2898 2905 2908 2914 2920 2927 2932 2935 2939 2943 2948 2952 2954 2960 2967 2972 2978 2985 2993 3000 3006 3011 3016 3024 3030 3036 3043 3050 3053 3060 3066
2942 2935 2934 2931 2926 2919 2907 2897 2897 2898 2891 2891 2897 2896 2897 2905 2914 2921 2927 2932 2934 2936 2940 2944 2948 2950 2955 2961 2966 2971 2979 2985 2993 2999 3004 3010 3018 3024 3029 3034 3040 3048 3053 3061
2941 2932 2928 2923 2922 2916 2908 2898 2892 2894 2894 2895 2898 2896 2901 2907 2914 2919 2925 2928 2931 2935 2939 2941 2945 2948 2949 2955 2961 2965 2972 2979 2986 2992 2997 3003 3012 3019 3023 3027 3034 3041 3047 3052
2938 2932 2927 2915 2916 2916 2910 2901 2890 2893 2895 2899 2899 2902 2904 2913 2918 2922 2926 2929 2931 2935 2936 2938 2941 2943 2946 2950 2955 2961 2966 2972 2979 2985 2991 2998 3005 3011 3015 3020 3026 3034 3039 3047
2939 2935 2931 2919 2915 2911 2914 2911 2909 2904 2900 2902 2904 2911 2911 2914 2918 2922 2925 2927 2930 2934 2935 2936 2938 2939 2940 2944 2950 2956 2963 2968 2973 2979 2984 2990 2997 3003 3008 3013 3020 3024 3032 3043
2941 2938 2934 2926 2918 2913 2923 2919 2916 2913 2912 2911 2913 2914 2915 2916 2918 2921 2923 2927 2929 2931 2933 2935 2936 2935 2936 2940 2947 2953 2958 2964 2968 2972 2978 2984 2991 2996 3002 3007 3013 3018 3027 3037
2941 2937 2934 2932 2926 2923 2921 2918 2915 2915 2917 2915 2915 2917 2917 2917 2918 2920 2922 2924 2926 2929 2931 2933 2934 2933 2936 2939 2944 2948 2954 2960 2963 2967 2972 2979 2984 2989 2994 2998 3005 3012 3019 3028
2940 2937 2937 2934 2931 2926 2932 2925 2917 2916 2918 2919 2918 2917 2916 2917 2917 2919 2920 2922 2924 2926 2929 2931 2932 2933 2935 2938 2940 2945 2947 2954 2959 2963 2968 2973 2979 2985 2988 2992 2998 3003 3014 3023
2941 2939 2940 2938 2936 2934 2933 2929 2924 2923 2934 2922 2922 2921 2919 2918 2918 2917 2918 2921 2923 2925 2927 2928 2930 2932 2934 2936 2938 2940 2940 2948 2953 2959 2963 2968 2974 2979 2983 2989 2995 2998 3007 3012
2950 2947 2946 2942 2940 2940 2933 2929 2929 2935 2930 2927 2925 2921 2919 2917 2915 2914 2916 2918 2921 2924 2925 2926 2927 2930 2931 2932 2934 2937 2941 2945 2950 2955 2959 2964 2969 2975 2980 2985 2989 2993 3000 3006
2954 2954 2953 2952 2948 2945 2940 2937 2937 2933 2930 2927 2924 2921 2918 2914 2913 2911 2912 2915 2917 2920 2921 2922 2924 2926 2928 2928 2931 2934 2937 2942 2946 2950 2955 2960 2965 2971 2976 2979 2984 2988 2992 3000
2954 2952 2951 2949 2946 2943 2939 2939 2936 2934 2930 2926 2923 2919 2916 2913 2912 2910 2910 2912 2914 2916 2918 2919 2921 2922 2924 2925 2927 2929 2932 2937 2942 2946 2951 2955 2961 2965 2969 2973 2978 2984 2989 2993
2950 2949 2948 2947 2944 2941 2939 2938 2934 2932 2928 2925 2921 2917 2914 2912 2911 2910 2910 2910 2912 2913 2915 2916 2918 2918 2918 2920 2922 2925 2929 2932 2936 2941 2946 2950 2955 2961 2965 2970 2975 2981 2988 2995
2949 2947 2946 2945 2945 2942 2938 2935 2931 2928 2925 2923 2919 2915 2913 2911 2910 2911 2910 2911 2911 2912 2913 2914 2913 2914 2914 2916 2918 2921 2925 2928 2932 2937 2942 2947 2952 2957 2962 2968 2973 2981 2989 2996